CZ-6A DEB, 54951

Orbit data source: Space-Track

CZ-6A DEB, 54951 is space debris in SSO originally from a launch on Fri, 11 Nov 2022 UTC launched from the Taiyaun Space Center, China (TSC). Debris objects in space refer to the collection of defunct objects orbiting the Earth. Examples of debris include non-operational satellites, rocket bodies, and fragments generated from explosions, collisions, or faulty payload assembly.

Loading next visibility...
Identifier
54951, 2022-151SQ
Orbit
SSO
Country
Flag of CNCN / PRC
Related business
Manufacturer
SAST
Mission
Spacecraft
Bus & Motor
Unknown
Mass
Unknown
Launch date (UTC)
2022-11-11 (3 years ago)
Launch vehicle
Unknown
Launch site
Taiyaun Space Center, China (TSC)
Object type
Payload
Rocket body
Debris
Shape & HBR
Unknown shape, 0.1 m
Radar Cross Section
Small (<0.1 m²)

Expand to show TLE details & history
Last TLE update: 11 hours ago

TLE from 11 hours ago
0 CZ-6A DEB
1 54951U 22151SQ  25352.53063997  .00003283  00000-0  87862-3 0  9994
2 54951  98.6024  17.4960 0089709 190.6482 169.2812 14.46589834162421
Epoch: 2025-12-18T12:44Z
TLE epoch observation values (Epoch: 2025-12-18T12:44:07.293Z)
Latitude
-0.00005°
Longitude
99.0808°
Altitude
802.509 km
Speed
7.419 km/s
True Right ascension
01h 09m 59s
True Declination
0° 00' 00"
Sunlit
Object was in daylight at epoch
Visualization orbit readout
Latitude
Unknown
Longitude
Unknown
Altitude
Unknown
Speed
Unknown
Apparent Right ascension
Unknown
Apparent Declination
Unknown
Sunlit
N/A
Visualization observer readout
Local Sidereal Time
23:01:23
Azimuth
Unknown
Elevation
Unknown
Doppler factor
Unknown
Orbital elements
Apogee altitude
797.728 km
Perigee altitude
670.124 km
Semi-major axis
7,112.063 km
Eccentricity
0.00897
Inclination
98.6024°
RAAN
17.496°
Arg. of periapsis
190.6482°
True anomaly
169.47031°
Mean anomaly
169.2812°
Eccentric anomaly
169.37596°
Mean motion
3.61868 °/min
Orbital period
99.48 mins
BSTAR
0.00087862
Loading maneuver chart data...
Computing Atmospheric mass density...

Documentation

Showing up to 5 results
|